Overview Statistics Trail Chart Weather Telemetry Raw packets
 

This is the latest recevied weather packets stored in our database for station/object W6MAF. If no packets are shown the sender has not sent any weather packets the latest 10 day(s).

<< 94 95 96 97 98 99 100 >>
Time Temp. Humidity Pressure Rain* Wind** Luminosity Snow
1787985782 22.22° C 30% - 0 mm 1.34 m/s, 184° - -
1787985485 22.22° C 30% - 0 mm 1.34 m/s, 155° - -
1787985188 -11.11° C 30% - 0 mm 2.24 m/s, 156° - -
1787985187 22.22° C 30% - 0 mm 2.24 m/s, 156° - -
1787984890 22.22° C 31% - 0 mm 1.79 m/s, 163° - -
1787984889 22.22° C 31% - 0 mm 1.79 m/s, 163° - -
1787984591 22.78° C 31% - 0 mm 1.79 m/s, 176° - -
1787984290 22.78° C 30% - 0 mm 1.34 m/s, 174° - -
1787984172 23.33° C 29% - 0 mm 2.24 m/s, 194° - -
1787983993 22.78° C 30% - 0 mm 2.24 m/s, 186° - -
1787983695 22.78° C 30% - 0 mm 2.24 m/s, 191° - -
1787983397 23.33° C 29% - 0 mm 2.24 m/s, 194° - -
1787982802 23.33° C 28% - 0 mm 1.79 m/s, 228° - -
1787982501 23.33° C 27% - 0 mm 1.34 m/s, 218° - -
1787982203 23.89° C 27% - 0 mm 1.79 m/s, 229° - -
1787981905 23.89° C 26% - 0 mm 0.89 m/s, 169° - -
1787981607 23.89° C 26% - 0 mm 0 m/s - -
1787981310 24.44° C 25% - 0 mm 0 m/s - -
1787981012 24.44° C 24% - 0 mm 0 m/s - -
1787980711 24.44° C 24% - 0 mm 0 m/s - -
1787980413 25° C 23% - 0 mm 1.34 m/s, 253° - -
1787980115 25° C 23% - 0 mm 1.34 m/s, 225° - -
1787979818 25° C 23% - 0 mm 2.68 m/s, 264° - -
1787979520 25° C 23% - 0 mm 2.24 m/s, 291° - -
1787979222 25° C 23% - 0 mm 2.68 m/s, 270° - -

* Rain latest hour (hover to see other rain measurements)
** Current wind speed in m/s (hover to see current wind gust speed)